AMOS-4

Last updated on Mon Oct 14 2024 00:02:39 GMT+0000 (Coordinated Universal Time)

1 39237U 13045A 24287.53660642 .00000006 00000+0 00000+0 0 9996 2 39237 0.0466 105.6609 0002102 144.4663 30.6370 1.00271935 40823
UTC large
Height (km)
Speed (km/s)
/
Latitude / Longitude
Inclination (degrees)
Orbital Period (minutes)
Azimuth
Elevation
Range (km)
Doppler Factor

Next 0 passes for location: London (51.5072 / 0.1276)

Sorry there are no passes over London.